This is the latest recevied weather packets stored in our database for station/object KM4KMS. If no packets are shown the sender has not sent any weather packets the latest 1 day(s).
| Time | Temp. | Humidity | Pressure | Rain* | Wind** | Luminosity | Snow |
|---|---|---|---|---|---|---|---|
| 1778020706 | 17.78° C | 86% | 1006.8 hPa | 0 mm | 0.45 m/s, 204° | 16 W/m² | - |
| 1778020404 | 17.78° C | 86% | 1006.6 hPa | 0 mm | 1.79 m/s, 197° | 13 W/m² | - |
| 1778020099 | 17.78° C | 88% | 1006.5 hPa | 0 mm | 0.89 m/s, 134° | 26 W/m² | - |
| 1778019795 | 17.78° C | 88% | 1006.1 hPa | 0 mm | 0.89 m/s, 156° | 40 W/m² | - |
| 1778019493 | 17.78° C | 90% | 1006.5 hPa | 0 mm | 0.89 m/s, 153° | 55 W/m² | - |
| 1778019189 | 17.78° C | 92% | 1006.3 hPa | 0 mm | 0.89 m/s, 134° | 67 W/m² | - |
| 1778018886 | 17.22° C | 91% | 1006.3 hPa | 0 mm | 1.34 m/s, 119° | 56 W/m² | - |
| 1778018583 | 17.22° C | 92% | 1006.7 hPa | 0 mm | 1.34 m/s, 126° | 29 W/m² | - |
| 1778018281 | 17.22° C | 92% | 1006.5 hPa | 0 mm | 0.89 m/s, 124° | 34 W/m² | - |
| 1778017979 | 17.22° C | 91% | 1006.6 hPa | 0 mm | 0.89 m/s, 154° | 28 W/m² | - |
| 1778017676 | 17.22° C | 91% | 1006.6 hPa | 0 mm | 0.89 m/s, 120° | 35 W/m² | - |
| 1778017374 | 17.78° C | 91% | 1006.6 hPa | 0 mm | 0.89 m/s, 111° | 35 W/m² | - |
| 1778017071 | 17.78° C | 89% | 1006.8 hPa | 0 mm | 0.89 m/s, 116° | 51 W/m² | - |
| 1778016769 | 17.78° C | 89% | 1007.1 hPa | 0 mm | 0.89 m/s, 130° | 36 W/m² | - |
| 1778016464 | 17.78° C | 91% | 1006.8 hPa | 0 mm | 0.89 m/s, 128° | 39 W/m² | - |
| 1778016162 | 17.78° C | 90% | 1007 hPa | 0 mm | 0.45 m/s, 113° | 46 W/m² | - |
| 1778015858 | 17.78° C | 90% | 1007.1 hPa | 0 mm | 0.89 m/s, 115° | 79 W/m² | - |
| 1778015556 | 17.78° C | 90% | 1007 hPa | 0 mm | 0.89 m/s, 164° | 71 W/m² | - |
| 1778015252 | 17.78° C | 90% | 1007.2 hPa | 0 mm | 0.89 m/s, 154° | 54 W/m² | - |
| 1778014949 | 17.78° C | 90% | 1007.3 hPa | 0 mm | 1.34 m/s, 174° | 57 W/m² | - |
| 1778014646 | 17.22° C | 92% | 1007.1 hPa | 0 mm | 0.89 m/s, 173° | 82 W/m² | - |
| 1778014344 | 17.78° C | 91% | 1007.4 hPa | 0 mm | 0 m/s | 59 W/m² | - |
| 1778014040 | 17.78° C | 90% | 1007.6 hPa | 0 mm | 0.45 m/s, 91° | 64 W/m² | - |
| 1778013739 | 17.22° C | 89% | 1007.5 hPa | 0 mm | 0.45 m/s, 145° | 59 W/m² | - |
| 1778013435 | 17.22° C | 89% | 1007.6 hPa | 0 mm | 0.45 m/s, 113° | 68 W/m² | - |
* Rain latest hour (hover to see other rain measurements)
** Current wind speed in m/s (hover to see current wind gust speed)